www.pogodaiklimat.ru

Погода и климат >> Архив погоды >> Россия >> город Санкт-Петербург >> Кронштадт


ПОГОДА в Кронштадте

  • Прогноз погоды в Кронштадте
  • Монитор погоды в Кронштадте

АРХИВ ПОГОДЫ в Кронштадте

Время (UTC), дата Ветер
(напр.,м/с)
 
Видим.   Явления Облачность Т
(С)
Тd
(С)
f
(%)
Тe
(С)
Тes
(С)
Комфортность P
(гПа)
Po
(гПа)
Тmin
(С)
Tmax
(С)
R
(мм)
R24
(мм)
S
(см)
18 18.05 Ю 1 20 км ясно +16.6 +9.7 64 +18 +18 1019.1 1018.5 +20.7
21 18.05 н/о н/о +13.6 +9.0 74 1020.1 1019.5
00 19.05 н/о н/о +12.4 +8.6 78 1020.0 1019.4
03 19.05 н/о н/о +12.9 +9.9 82 1020.1 1019.5 +11.7
06 19.05 ЮВ 1 10 км 8/0
[Ci fib]
+18.2 +7.6 50 +19 +26 1019.6 1019.0 +11.3
09 19.05 В 2 10 км 6/0
[Ci fib]
+21.2 +7.4 41 +22 +33 комфорт 1019.6 1019.0
12 19.05 СВ 2 10 км 8/0
[Ac trans Ci fib]
+22.5 +6.7 36 +23 +31 комфорт 1019.0 1018.4
15 19.05 СВ 4 10 км 9/0
[Ac trans Ci fib]
+21.8 +9.0 44 +23 +25 комфорт 1018.6 1018.0
18 19.05 В 3 10 км 10/0
[Ci fib]
+18.3 +8.4 52 +19 +19 1018.6 1018.0 +24.2
21 19.05 н/о н/о +15.0 +8.2 64 1019.7 1019.0
00 20.05 н/о н/о +14.1 +9.3 73 1019.7 1019.1
03 20.05 н/о н/о +14.4 +9.0 70 1019.8 1019.2 +13.6
06 20.05 В 2 20 км 8/0
[Ac trans Cs]
+16.1 +7.9 58 +16 +21 1018.7 1018.1 +13.4
09 20.05 СВ 3 10 км 10/0
[Cs]
+20.5 +8.6 46 +22 +31 комфорт 1018.4 1017.8
12 20.05 В 2 20 км 10/1 600 м
[Cu hum Ac trans Cs]
+23.4 +9.8 42 +25 +30 комфорт 1017.0 1016.4
15 20.05 В 2 20 км 10/1 600 м
[Cu hum Ac trans Cs]
+24.5 +11.1 43 +26 +28 жарко 1015.5 1014.9
18 20.05 В 2 20 км 10/3 600 м
[Sc Ac trans Cs]
+22.9 +10.3 45 +25 +25 комфорт 1014.8 1014.2 +24.9
21 20.05 н/о н/о
00 21.05 н/о н/о
03 21.05 н/о н/о
06 21.05 ЮВ 1 20 км 10/3 600 м
[Sc Ac trans]
+17.0 +12.5 75 +18 +20 1013.7 1013.1 +16.0
09 21.05 В 1 20 км 10/4 300 м
[Cb calv Ac trans Ci fib]
+19.9 +11.8 60 +23 +27 комфорт 1013.6 1013.0
12 21.05 н/о н/о
15 21.05 СВ 1 20 км 8/4 300 м
[Cb calv Ci fib]
+21.4 +13.8 62 +24 +27 комфорт 1012.0 1011.4
18 21.05 СВ 3 20 км 8/4 300 м
[Cb calv Ac trans Ci fib]
+18.0 +12.6 71 +18 +18 1012.0 1011.4 +23.0
21 21.05 н/о н/о
00 22.05 н/о н/о
03 22.05 н/о н/о
06 22.05 С 1 10 км 4/0
[Ci fib]
+16.7 +12.2 75 +18 +25 1010.9 1010.3 +16.0
09 22.05 10 км 4/0
[Ci fib]
12 22.05 СВ 2 10 км 3/3 600 м
[Cu hum]
+20.9 +11.8 56 +24 +32 комфорт 1009.2 1008.6
15 22.05 СВ 2 10 км 3/3 600 м
[Cu hum]
+21.4 +10.7 50 +23 +26 комфорт 1007.8 1007.2
18 22.05 В 2 10 км 8/3 600 м
[Cu med, cong Ci fib]
+19.6 +13.5 68 +22 +22 комфорт 1006.8 1006.2 +21.7
21 22.05 н/о н/о
00 23.05 н/о н/о
03 23.05 н/о н/о
06 23.05 СВ 6-10
{10}
20 км 10/10 500 м
[Sc]
+8.7 +5.9 83 +5 +5 1010.5 1009.9 +8.7
09 23.05 СВ 5-10
{11}
20 км 10/10 600 м
[Sc]
+7.6 +3.4 75 +4 +4 1012.5 1011.9
12 23.05 СВ 5-10
{10}
20 км 10/3 600 м
[Sc Ac und]
+8.5 +3.1 69 +5 +6 1013.2 1012.6
15 23.05 СВ 4
{10}
20 км 5/1 600 м
[Sc Ac trans Ci fib]
+10.5 +1.4 53 +8 +10 1013.2 1012.6
18 23.05 СВ 3 20 км 8/0
[Ac trans Cc]
+9.9 -0.4 49 +8 +8 1013.3 1012.7 +10.5
21 23.05 н/о н/о +8.7 +0.7 57 1014.1 1013.5
00 24.05 н/о н/о +9.1 +2.4 63 1014.0 1013.4
03 24.05 н/о н/о +7.9 +1.9 66 1014.9 1014.3 +7.8
06 24.05 СВ 3 20 км 10/3 600 м
[Sc Ac und]
+8.6 +3.0 68 +6 +7 1013.8 1013.2 +7.7
09 24.05 СВ 2 20 км 9/1 600 м
[Cb calv Ac As]
+10.5 +3.2 61 +9 +14 1013.5 1012.9
12 24.05 СВ 3 20 км 10/3 600 м
[Sc Ac As]
+12.8 +3.4 53 +12 +14 1012.4 1011.8
15 24.05 В 2 20 км 10/8 600 м
[Sc Ac As]
+13.9 +4.6 53 +14 +14 1010.1 1009.5
18 24.05 СВ 1 20 км 10/0
[Ac As]
+13.6 +5.6 58 +14 +14 1009.8 1009.2 +15.0
21 24.05 н/о н/о
00 25.05 н/о н/о +10.6 +10.3 98 1007.5 1006.9
03 25.05 н/о н/о +11.2 +11.0 99 1005.9 1005.3
06 25.05 ЮЗ 2 4000 м дымка 10/10 300 м
[St]
+10.6 +10.2 97 +9 +9 1004.7 1004.1 +9.6 3
09 25.05 С 1 4000 м дымка 8/3 300 м
[Cu med, cong Ac trans Ci fib]
+13.5 +10.4 82 +14 +21 1003.9 1003.3
12 25.05 4000 м слаб. ливневой дождь 10/10 300 м
[Cb calv]
+12.3 +11.3 94 1003.1 1002.5
15 25.05 З 4 2000 м гроза, ливневой дождь 10/10 300 м
[Cb cap]
+13.3 +11.4 88 +12 +12 1001.1 1000.5

 

Местоположение метеостанции Кронштадт (город Санкт-Петербург, Россия): широта 59.98 долгота 29.76 высота над уровнем моря 5 м.

В архиве по умолчанию представлена погода в Кронштадте за последнюю неделю. Архивные данные за месяц целиком и за предыдущие месяцы, начиная с января 2011 года, Вы можете получить, выбрав интересующий диапазон дат из раскрывающегося списка и нажав кнопку "Ввод!".


*Определитесь, кто Вы:
робот инопланетянин человек

Внимание! Время в таблицах - всемирное. Для получения местного времени необходимо прибавить поправку, которая равна 3 ч.

Смотрите также архив погоды в соседних городах и на ближайших метеорологических станциях:

Погода в Ломоносове (город Санкт-Петербург, Россия) (7 км)
Погода в Лисьем Носу (город Санкт-Петербург, Россия) (13 км)
Погода в Санкт-Петербурге (город Санкт-Петербург, Россия) (30 км)
Погода в Шепелево (Ленинградская область, Россия) (30 км)
Погода в Рощино (Ленинградская область, Россия) (31 км)
Погода в Сосновом Бору (Ленинградская область, Россия) (37 км)
Погода в Озерках (Ленинградская область, Россия) (49 км)
Погода в Воейково (город Санкт-Петербург, Россия) (52 км)
Погода в Волосово (Ленинградская область, Россия) (63 км)
Погода в Шлиссельбурге (Ленинградская область, Россия) (69 км)

Пояснения к столбцам:

Ветер - указаны скорость ветра в м/с - средняя за 10 мин, порывы в срок и между сроками (в фигурных скобках) и направление, откуда дует ветер: С - северный, СВ - северо-восточный, В - восточный, ЮВ - юго-восточный, Ю - южный, ЮЗ - юго-западный, З - западный, СЗ - северо-западный.
Видимость - горизонтальная дальность видимости в метрах или километрах. При видимости от 1 до 10 км при отсутствии осадков обычно наблюдается дымка, при ухудшении видимости до 1 км и менее - туман. В сухую погоду видимость может ухудшаться дымом, пылью или мглою.
Явления - указаны атмосферные явления, наблюдавшиеся в срок или в последний час перед сроком; фигурными скобками обозначены явления, наблюдавшиеся между сроками (за 1-3 часа до срока); квадратными скобками обозначены град или гололедные отложения с указанием их диаметра в мм.
Облачность - указаны через наклонную черту общая и нижняя облачность в баллах и высота нижней границы облаков в метрах; квадратными скобками обозначены формы облаков: Ci - перистые, Cs - перисто-слоистые, Cc - перисто-кучевые, Ac - высококучевые, As - высокослоистые, Sc - слоисто-кучевые, Ns - слоисто-дождевые, Cu - кучевые, Cb - кучево-дождевые. Подробнее классификацию облаков см. в Атласе облаков (PDF).
T - Температура воздуха - температура, измеренная на высоте 2 м над землей.
Td - Температура точки росы - температура, при понижении до которой содержащийся в воздухе водяной пар достигнет насыщения.
f - Относительная влажность воздуха - влажноcть воздуха, измеренная на высоте 2 м над землей.
Te - Эффективная температура - температура, которую ощущает одетый по сезону человек в тени. Характеристика душности погоды. При расчете учитывается влияние влажности воздуха и скорости ветра на теплоощущения человека.
Tes - Эффективная температура на солнце - температура, которую ощущает человек, с поправкой на солнечный нагрев. Характеристика знойности погоды. Зависит от высоты солнца над горизонтом, облачности и скорости ветра. Ночью, в пасмурную погоду, а также при ветре 12 м/с и более поправка равна нулю.
P - Атмосферное давление - приведенное к уровню моря атмосферное давление.
Po - Атмосферное давление - измеренное на уровне метеостанции атмосферное давление.
Tmin - Минимальная температура - минимум температуры воздуха на высоте 2 м над землей.
Tmax - Максимальная температура - максимум температуры воздуха на высоте 2 м над землей.
R - Количество осадков - Количество выпавших осадков за период времени, мм. При наведении курсора мыши на число - период времени, за который выпало указанное количество осадков.
R24 - Количество осадков - Количество выпавших осадков за 24 часа, мм.
S - Снежный покров - Высота снежного покрова, см. При наведении курсора мыши на число - состояние снежного покрова и степень покрытия местности в баллах.